Location: Windsor
(43.2292°N, 89.3015°W)
Time: 09:45:59
(UTC+00:00)

BEESAT - Pass Details

Date: 08 July 2022
Orbit: 700 x 706 km, 98.6° (Epoch: 13 August)

Event Time Altitude Azimuth Distance (km) Brightness Sun altitude
Rises 02:14:48 0° 16° (NNE) 3,106 ? -6.1°
Reaches altitude 10° 02:17:05 10° 19° (NNE) 2,184 ? -6.4°
Maximum altitude 02:21:51 69° 102° (ESE) 760 ? -7.1°
Drops below altitude 10° 02:26:36 10° 186° (S) 2,170 ? -7.7°
Sets 02:28:51 0° 189° (S) 3,085 ? -8.0°
